Location: Munderkingen
(48.2395°N, 9.6433°E)
Time: 19:53:49
(UTC+02:00)

ISS - Pass Details

Date: 28 March 2017
Orbit: 399 x 409 km, 51.6° (Epoch: 29 March)

Event Time Altitude Azimuth Distance (km) Brightness Sun altitude
Rises 20:56:16 0° 214° (SW) 2,301 0.2 -12.2°
Reaches altitude 10° 20:58:31 10° 202° (SSW) 1,448 -1.0 -12.6°
Maximum altitude 21:01:17 26° 143° (SE) 826 -2.7 -13.0°
Enters shadow 21:01:55 25° 122° (ESE) 869 -2.8 -13.1°
